CW5467 Weather Reports


Display with metric or nautical units.
time (UTC)temp
F
wind
direction
speed
MPH
gust
MPH
rain 1hr
in
rain 24hr
in
rain mn
in
humidity
%
barometer
mb
20260509040959 48 158 2.0 5.0 0.00 0.00 0.00 51 1007.1
20260509035000 47 158 2.0 3.0 0.00 0.00 0.00 54 1007.2
20260509034002 47 158 1.0 2.0 0.00 0.00 0.00 59 1007.3
20260509032958 46 158 1.0 2.0 0.00 0.00 0.00 60 1007.3
20260509031959 46 158 1.0 3.0 0.00 0.00 0.00 62 1007.4
20260509031000 47 158 0.0 1.0 0.00 0.00 0.00 61 1007.4
20260509025958 47 158 0.0 0.0 0.00 0.00 0.00 58 1007.7
20260509024957 47 158 0.0 1.0 0.00 0.00 0.00 59 1007.7
20260509023959 47 158 0.0 2.0 0.00 0.00 0.00 57 1007.8
20260509021013 48 158 1.0 3.0 0.00 0.00 0.00 58 1008.0
20260509015012 49 158 1.0 2.0 0.00 0.00 0.00 55 1007.9
20260509013001 51 158 2.0 3.0 0.00 0.00 0.00 48 1007.7
20260509012001 51 158 3.0 5.0 0.00 0.00 0.00 48 1007.7
20260509010002 54 158 3.0 5.0 0.00 0.00 0.00 39 1007.8
20260509005002 56 190 2.0 3.0 0.00 0.00 0.00 36 1007.8
20260509003958 57 111 1.0 2.0 0.00 0.00 0.00 32 1007.7
20260509003000 57 289 0.0 1.0 0.00 0.00 0.00 29 1007.8
20260509001959 58 289 1.0 3.0 0.00 0.00 0.00 34 1007.9
20260509001001 59 289 2.0 7.0 0.00 0.00 0.00 28 1007.9
20260509000004 60 315 5.0 8.0 0.00 0.00 0.00 25 1008.0
20260508235000 61 309 5.0 9.0 0.00 0.00 0.00 25 1008.2
20260508234001 61 297 5.0 10.0 0.00 0.00 0.00 23 1008.2
20260508233003 62 300 7.0 12.0 0.00 0.00 0.00 24 1008.3
20260508231957 62 286 7.0 11.0 0.00 0.00 0.00 23 1008.3
20260508231000 62 297 7.0 13.0 0.00 0.00 0.00 22 1008.3
20260508230006 62 293 9.0 13.0 0.00 0.00 0.00 22 1008.2
20260508225000 63 287 9.0 14.0 0.00 0.00 0.00 21 1008.2
20260508224002 62 328 6.0 12.0 0.00 0.00 0.00 21 1008.2
20260508223001 62 276 8.0 13.0 0.00 0.00 0.00 24 1008.3
20260508221959 62 269 13.0 17.0 0.00 0.00 0.00 24 1008.3
20260508221001 62 261 11.0 15.0 0.00 0.00 0.00 27 1008.3
20260508220004 62 259 11.0 16.0 0.00 0.00 0.00 23 1008.3
20260508214958 63 278 11.0 16.0 0.00 0.00 0.00 21 1008.4
20260508214001 63 253 9.0 15.0 0.00 0.00 0.00 25 1008.4
20260508213002 63 299 10.0 15.0 0.00 0.00 0.00 24 1008.3
20260508212002 63 258 9.0 18.0 0.00 0.00 0.00 23 1008.5
20260508210959 64 266 10.0 18.0 0.00 0.00 0.00 25 1008.5
20260508205958 63 257 12.0 16.0 0.00 0.00 0.00 22 1008.6
20260508205000 64 314 10.0 17.0 0.00 0.00 0.00 23 1008.5
20260508204000 64 294 8.0 20.0 0.00 0.00 0.00 23 1008.8
20260508202957 64 241 8.0 16.0 0.00 0.00 0.00 29 1008.9
20260508201959 63 233 11.0 16.0 0.00 0.00 0.00 25 1008.8
20260508200004 64 271 11.0 18.0 0.00 0.00 0.00 26 1009.1
20260508194958 64 264 7.0 18.0 0.00 0.00 0.00 23 1009.3
20260508194001 64 327 9.0 14.0 0.00 0.00 0.00 28 1009.3
20260508193002 64 288 11.0 17.0 0.00 0.00 0.00 27 1009.3
20260508191957 64 261 9.0 18.0 0.00 0.00 0.00 30 1009.5
20260508190003 62 206 8.0 20.0 0.00 0.00 0.00 29 1009.6
20260508184957 63 281 9.0 16.0 0.00 0.00 0.00 28 1009.6
20260508182958 63 258 13.0 17.0 0.00 0.00 0.00 30 1009.8
20260508180958 63 261 13.0 19.0 0.00 0.00 0.00 29 1010.1
20260508180006 62 254 9.0 15.0 0.00 0.00 0.00 32 1010.0
20260508175001 62 223 4.0 16.0 0.00 0.00 0.00 33 1010.2
20260508174001 62 304 5.0 12.0 0.00 0.00 0.00 34 1010.4
20260508173009 62 292 8.0 15.0 0.00 0.00 0.00 33 1010.6
20260508172000 62 244 11.0 16.0 0.00 0.00 0.00 35 1010.7
20260508171000 61 304 4.0 9.0 0.00 0.00 0.00 38 1010.8
20260508170005 61 226 4.0 11.0 0.00 0.00 0.00 41 1011.0
20260508164959 60 151 3.0 9.0 0.00 0.00 0.00 37 1011.2
20260508162959 59 256 5.0 16.0 0.00 0.00 0.00 41 1011.6
20260508162000 58 209 8.0 14.0 0.00 0.00 0.00 46 1011.7
20260508160959 58 229 7.0 13.0 0.00 0.00 0.00 43 1011.8
20260508160004 58 91 2.0 9.0 0.00 0.00 0.00 41 1011.8
20260508153007 58 360 8.0 11.0 0.00 0.00 0.00 40 1011.9
20260508151958 56 177 3.0 8.0 0.00 0.00 0.00 44 1011.9
20260508150958 56 209 2.0 7.0 0.00 0.00 0.00 47 1012.0
20260508150003 55 200 5.0 8.0 0.00 0.00 0.00 49 1012.2
20260508144958 55 261 0.0 7.0 0.00 0.00 0.00 52 1012.2
20260508144001 55 331 2.0 4.0 0.00 0.00 0.00 47 1012.3
20260508142958 54 205 1.0 6.0 0.00 0.00 0.00 61 1012.4
20260508140958 53 190 3.0 6.0 0.00 0.00 0.00 69 1012.6
20260508140005 52 163 4.0 6.0 0.00 0.00 0.00 70 1012.5
20260508134002 51 198 4.0 7.0 0.00 0.00 0.00 77 1012.5
20260508133001 50 226 2.0 5.0 0.00 0.00 0.00 77 1012.7
20260508132000 49 206 3.0 6.0 0.00 0.00 0.00 81 1012.7
20260508131000 49 188 4.0 5.0 0.00 0.00 0.00 83 1012.9
20260508130002 48 182 3.0 6.0 0.00 0.00 0.00 85 1012.9
20260508123956 45 219 3.0 4.0 0.00 0.00 0.00 90 1013.0
20260508123001 44 204 1.0 4.0 0.00 0.00 0.00 92 1012.8
20260508121958 42 156 3.0 5.0 0.00 0.00 0.00 92 1012.8
20260508120959 41 184 2.0 4.0 0.00 0.00 0.00 92 1012.6
20260508120005 39 239 0.0 1.0 0.00 0.00 0.00 93 1012.5
20260508115001 38 239 0.0 0.0 0.00 0.00 0.00 93 1012.4
20260508113958 36 239 0.0 2.0 0.00 0.00 0.00 93 1012.4
20260508112959 36 250 1.0 2.0 0.00 0.00 0.00 93 1012.3
20260508111959 34 88 0.0 1.0 0.00 0.00 0.00 93 1012.3
20260508110959 34 51 0.0 1.0 0.00 0.00 0.00 92 1012.2
20260508105000 33 258 0.0 2.0 0.00 0.00 0.00 92 1012.2
20260508103956 34 275 0.0 1.0 0.00 0.00 0.00 92 1012.1
20260508103000 33 286 0.0 2.0 0.00 0.00 0.00 92 1012.0
20260508102001 34 289 0.0 1.0 0.00 0.00 0.00 92 1011.9
20260508094003 34 192 0.0 0.0 0.00 0.00 0.00 92 1012.0
20260508093000 35 192 0.0 0.0 0.00 0.00 0.00 92 1011.9
20260508092001 35 192 0.0 0.0 0.00 0.00 0.00 92 1012.1
20260508091001 35 192 0.0 0.0 0.00 0.00 0.00 92 1012.1
20260508090004 35 192 0.0 0.0 0.00 0.00 0.00 92 1012.1
20260508085002 35 192 0.0 0.0 0.00 0.00 0.00 92 1012.1
20260508083959 35 192 0.0 0.0 0.00 0.00 0.00 91 1012.1
20260508083002 34 192 0.0 0.0 0.00 0.00 0.00 91 1012.2
20260508082000 35 192 0.0 0.0 0.00 0.00 0.00 91 1012.2
20260508080958 35 192 0.0 0.0 0.00 0.00 0.00 91 1012.2
20260508075000 36 192 3.0 4.0 0.00 0.00 0.00 91 1012.2
20260508073959 35 250 0.0 3.0 0.00 0.00 0.00 91 1012.2
20260508072001 36 250 2.0 3.0 0.00 0.00 0.00 91 1012.5
20260508071000 36 250 1.0 2.0 0.00 0.00 0.00 90 1012.7
20260508070002 37 250 1.0 2.0 0.00 0.00 0.00 90 1012.7
20260508064002 37 250 1.0 3.0 0.00 0.00 0.00 89 1012.8
20260508063001 38 250 0.0 0.0 0.00 0.00 0.00 90 1012.8
20260508061957 38 250 0.0 0.0 0.00 0.00 0.00 89 1013.0
20260508061000 38 250 0.0 0.0 0.00 0.00 0.00 88 1013.0
20260508060001 39 250 0.0 0.0 0.00 0.00 0.00 89 1013.1
20260508054957 39 250 0.0 0.0 0.00 0.00 0.00 89 1013.0
20260508053957 39 250 0.0 0.0 0.00 0.00 0.00 88 1012.9
20260508052001 40 250 0.0 0.0 0.00 0.00 0.00 89 1013.0
20260508050002 40 250 0.0 0.0 0.00 0.00 0.00 87 1012.8
20260508045000 40 250 0.0 0.0 0.00 0.00 0.00 87 1012.9
20260508044000 41 250 0.0 0.0 0.00 0.00 0.00 86 1012.8